{"data":{"norad_id":47650,"epoch":"2026-09-20T03:20:11.514624Z","epoch_age_seconds":56862,"freshness":"FRESH","line1":"1 47650U 21012AG  26263.13902216  .00087475  00000+0  99437-3 0  9996","line2":"2 47650  53.1565 206.4826 0007152  80.1447 280.0375 15.61577603310332","mean_motion":15.61577603,"eccentricity":0.0007152,"inclination_deg":53.1565,"raan_deg":206.4826,"arg_perigee_deg":80.1447,"mean_anomaly_deg":280.0375,"bstar":0.00099437,"rev_number":31033,"period_min":92.214437325021,"perigee_km":378.26385896505,"apogee_km":387.93513164794,"semimajor_km":6761.2364953065,"source":"CELESTRAK","updated_at":"2026-09-20T09:00:38.598597Z"}}